Starlink 1230

operational
NORAD ID: 45189 Int'l Des: 2020-012 Owner: SPXS Country: US Constellation: starlink
LEOCIRCULARSTARLINK_TYPE

Starlink 1230について

説明を読み込み中...

リアルタイム位置

3D地球を読み込み中...

次回通過

高度履歴

Altitude vs Time

uPlot chart will show altitude changes over time

軌道要素

1 45189U 20012M 25352.57926753 -.00000363 00000-0 -55017-5 0 9990
2 45189 53.0557 50.7401 0001188 90.0196 270.0929 15.06407536319834
Epoch: Dec 18, 2025 • Age: 15 hours

現在のステータス

高度 549.5 km
速度 7.59 km/s
衛星直下点 -7.55°S, 69.49°E
打ち上げ日 Feb 17, 2020
運用期間 5.8 years
タイプ internet

技術仕様

分類 Payload
質量 260.00 kg
乾燥質量 248.00 kg
総質量 260.00 kg
長さ 0.20 m
直径 2.80 m
スパン 9.00 m
形状 Box + pan
製造者 SPXS
バスタイプ Starlink
フェーズステータス In Orbit
所有者/国 SPXS/US

大規模コンステレーション

Loading constellations...